Probability
0 0 0 0 0 0 0 0 0 0 0 0 0 0 0 0 0 0 0 0 2 4 6 7 7 7 9 11 12 15 19 22 24 23 20 17 14 10 7 5 1 0 1 1 1 1 1 1 0
0 0 0 0 0 0 0 0 0 0 0 0 0 0 0 0 0 0 0 1 3 6 8 8 8 9 11 13 12 13 16 19 20 21 20 19 16 12 9 6 3 1 2 3 2 1 2 2 1
0 0 0 0 0 0 0 0 0 0 1 0 0 1 1 0 0 0 1 3 5 7 9 10 10 12 15 16 14 14 16 18 19 20 21 20 17 13 10 8 5 3 4 4 3 2 3 2 1
0 0 0 0 0 0 0 0 0 0 0 0 1 2 2 1 0 1 4 6 8 9 10 12 14 16 19 20 18 18 20 21 20 20 18 16 13 10 9 7 6 6 6 5 4 3 3 3 2
0 0 0 0 0 0 0 0 0 0 1 1 2 3 3 2 2 4 6 8 9 10 11 13 16 19 21 22 23 23 23 21 18 15 14 11 9 6 5 5 6 7 6 5 5 4 3 3 3
0 0 0 0 0 0 0 0 0 1 2 3 3 3 3 3 5 7 9 9 10 12 13 14 16 18 20 22 23 23 21 17 13 11 11 11 9 6 4 4 5 7 6 5 5 5 5 5 5
0 0 0 0 0 0 0 0 0 2 3 3 3 3 3 5 8 12 13 13 13 14 14 14 15 17 20 21 21 20 18 16 13 11 11 12 11 9 5 4 5 7 7 7 6 6 7 7 7
0 0 0 0 0 0 0 0 0 1 2 2 3 4 4 7 12 16 16 15 14 13 13 13 13 15 17 18 17 16 17 15 12 10 10 11 10 8 4 3 5 7 8 8 7 7 7 7 8
0 0 0 0 0 0 0 0 0 0 1 3 5 6 8 12 15 17 16 15 13 12 10 10 11 12 13 13 13 13 14 12 9 8 10 9 7 5 3 2 3 5 7 8 7 6 7 8 8
0 0 0 0 0 0 0 0 0 0 2 4 6 9 13 18 19 18 15 13 12 11 9 10 10 11 11 11 10 10 11 10 8 9 10 10 7 4 2 1 1 2 4 5 4 4 6 7 7
0 0 0 0 1 1 1 0 0 0 1 4 7 11 16 19 20 18 14 12 11 10 9 10 11 12 12 11 11 10 10 10 9 10 12 11 9 5 2 0 0 0 2 3 3 3 5 6 6
0 0 0 0 1 3 3 2 2 1 2 4 9 13 16 17 17 16 13 10 10 9 9 9 11 11 11 11 11 11 11 10 10 10 12 12 9 5 2 0 0 1 1 3 4 5 6 7 7
0 0 0 0 2 5 6 6 6 4 4 6 11 14 15 13 12 11 10 8 7 7 7 7 7 9 10 10 10 11 12 10 9 9 11 12 10 6 3 1 1 2 3 4 5 7 8 8 8
0 0 0 1 3 5 7 8 8 5 4 8 13 14 13 10 7 6 5 5 4 4 5 4 4 6 7 7 7 9 10 9 8 9 11 11 10 8 5 3 3 3 3 4 5 6 6 7 7
0 0 0 0 1 2 4 5 5 4 5 10 13 13 11 8 6 4 4 3 3 3 3 3 3 3 4 4 4 5 7 8 8 9 10 9 8 7 5 3 3 3 3 3 3 4 4 4 5
0 0 0 0 0 0 1 2 2 4 7 11 12 12 10 7 6 5 4 3 3 1 2 3 3 3 2 2 1 3 5 6 8 8 8 7 6 5 4 3 2 1 1 1 1 3 3 3 4
0 0 0 1 1 1 1 1 2 4 8 10 12 12 10 8 7 7 6 4 3 2 2 4 4 3 3 2 1 2 3 4 5 6 5 5 5 4 3 2 1 0 0 0 1 2 3 3 3
0 0 1 2 2 2 1 1 3 4 7 9 10 10 8 8 8 9 8 6 5 4 4 3 3 3 3 3 2 2 2 2 3 3 3 4 4 3 3 3 1 0 0 1 1 1 1 2 2
0 0 1 2 3 2 1 1 2 4 6 7 8 8 7 8 9 11 10 9 7 6 3 2 1 1 2 3 3 2 1 1 1 2 2 3 3 3 3 3 2 1 1 1 0 0 0 1 1
0 0 1 2 3 1 1 0 1 3 5 5 5 6 7 8 11 12 12 11 11 7 2 1 1 1 2 2 2 1 0 0 1 2 3 3 3 3 3 3 3 3 2 2 1 0 0 0 1
0 0 1 2 2 1 0 0 0 2 3 4 3 5 7 9 11 12 12 13 13 9 3 1 2 3 2 1 0 0 0 0 1 2 3 3 3 3 3 3 3 3 3 3 1 0 0 0 1
0 0 1 2 1 0 0 0 0 1 2 3 4 5 6 8 9 10 11 12 13 9 4 2 3 3 2 1 0 0 0 0 0 1 2 3 3 3 3 3 3 3 3 3 2 1 0 0 1
0 0 1 1 1 0 0 0 0 0 2 3 5 5 6 6 7 9 10 11 11 7 3 2 3 3 2 1 0 0 0 0 0 0 1 2 3 3 3 3 3 3 3 3 2 1 0 0 0
0 0 0 0 0 0 0 0 0 1 2 3 4 6 6 6 7 7 8 9 8 5 3 3 3 3 3 1 0 0 0 0 0 0 0 1 2 3 3 3 3 3 3 3 3 1 0 0 0
0 0 0 0 0 0 0 0 0 1 2 3 3 5 6 6 6 5 5 6 5 4 3 3 3 3 3 2 1 0 0 0 0 0 0 0 1 3 3 3 3 3 3 3 3 2 1 0 0
0 0 0 0 0 0 0 0 0 0 1 2 2 4 5 5 4 4 4 3 3 3 3 3 3 3 3 3 2 0 0 0 0 0 0 0 1 2 3 3 3 3 3 3 3 2 1 0 0
0 0 0 0 0 0 0 0 0 0 0 1 2 3 4 4 4 3 3 2 2 3 3 3 3 3 3 2 1 0 0 0 0 0 0 0 1 2 3 3 3 3 3 3 1 1 0 0 0
0 0 0 0 0 0 0 0 0 0 0 1 3 3 4 4 4 3 2 1 1 2 3 3 3 3 2 2 2 1 0 0 0 0 0 0 1 2 3 3 3 3 3 2 1 0 0 0 0
0 0 0 0 0 0 0 0 0 0 0 1 2 2 3 4 4 3 2 0 1 2 3 3 3 3 2 2 2 2 1 0 0 0 0 0 0 1 2 2 2 2 2 2 1 0 0 0 0
0 0 0 0 0 0 0 0 1 1 1 0 1 1 1 2 2 3 2 1 1 2 3 3 3 3 2 2 3 2 1 0 0 0 0 0 0 0 1 1 1 1 1 1 0 0 0 0 0
Wind_Speed
3 3 2 2 4 5 2 3 2 2 1 1 2 4 4 3 2 2 0 6 7 7 6 9 11 12 12 12 12 12 12 12 12 12 12 12 12 11 11 10 9 9 8 9 9 9 8 8 9
3 3 2 4 5 2 3 3 1 1 2 1 3 4 4 2 2 3 2 4 7 8 6 7 11 11 11 11 11 11 12 12 12 11 11 11 11 10 10 9 9 8 8 8 8 8 8 8 8
3 1 3 4 3 3 3 2 1 0 1 1 3 4 3 1 2 3 3 7 7 6 5 7 11 11 10 11 10 11 11 11 11 11 10 10 10 9 8 8 8 7 7 6 7 6 6 6 7
2 3 4 4 1 4 4 3 2 1 1 2 3 4 2 1 2 4 7 9 8 6 5 6 10 10 10 10 10 10 11 11 10 9 9 9 9 8 7 7 7 6 6 5 5 5 5 5 6
3 4 5 3 3 4 3 3 2 2 1 2 3 3 1 2 5 8 9 9 8 6 5 5 9 9 9 10 9 9 9 9 9 9 8 8 8 7 6 6 6 5 4 4 4 4 4 4 5
4 5 4 1 4 4 3 1 2 1 2 2 3 4 1 2 6 7 7 7 7 7 5 4 8 8 8 8 8 8 8 8 8 8 7 6 6 5 5 5 5 4 4 4 3 3 3 3 3
4 4 2 2 3 4 2 0 2 2 2 2 4 4 1 2 5 7 7 7 6 5 5 4 3 4 6 7 7 7 7 7 6 6 6 6 5 5 4 4 4 4 3 3 3 2 2 2 2
4 4 1 1 2 4 2 0 0 2 2 2 3 5 3 4 7 8 7 6 5 4 4 3 3 3 3 4 6 6 6 6 6 5 5 5 4 3 3 2 3 3 3 2 2 2 2 2 2
3 5 2 4 4 4 1 0 1 1 3 2 1 3 4 11 11 9 7 5 4 3 2 3 3 2 2 2 4 4 5 5 4 3 4 4 2 1 1 1 1 2 2 2 2 2 2 2 2
4 3 6 5 4 3 2 1 2 2 2 1 3 5 9 11 10 9 7 6 5 4 3 2 3 3 2 2 2 2 2 2 2 2 2 2 2 1 1 1 1 0 1 1 1 1 1 1 0
4 5 4 4 4 3 2 1 2 4 2 5 6 9 11 11 9 8 7 6 6 5 4 4 3 3 2 1 2 1 1 1 1 1 1 2 1 1 1 1 1 1 1 1 1 1 0 0 0
3 5 4 4 2 2 3 2 2 3 5 5 9 12 12 12 11 9 8 6 4 4 4 4 4 3 2 2 1 2 1 1 1 1 1 1 1 1 1 0 0 0 0 0 0 0 1 1 1
3 4 4 5 3 2 3 2 2 2 1 6 10 11 12 11 9 7 6 4 3 3 3 3 3 3 3 2 1 2 1 1 1 1 1 1 1 1 0 0 0 0 0 0 0 1 1 1 0
3 3 4 3 2 1 3 1 2 2 3 7 10 10 10 9 8 6 5 4 4 4 4 3 3 3 3 2 1 1 1 1 1 1 1 2 1 1 1 0 0 0 0 1 1 1 1 1 1
2 3 4 2 0 1 4 1 2 3 6 7 7 8 8 6 6 7 7 6 5 4 4 3 3 3 3 2 2 1 1 1 1 1 1 1 1 1 1 1 0 1 0 0 1 0 1 0 0
1 2 2 4 0 1 5 3 3 4 7 6 5 6 7 5 5 5 6 5 5 4 4 3 3 3 3 2 1 1 1 1 1 0 0 1 1 1 1 1 1 0 0 0 1 0 0 0 0
3 0 2 4 1 2 3 4 3 4 6 6 6 6 6 5 4 4 5 5 5 5 4 3 3 3 3 2 1 1 1 1 1 0 0 0 0 1 1 1 1 0 1 0 0 1 1 1 1
3 2 2 3 2 2 1 4 3 4 7 7 6 6 6 7 6 5 4 4 4 4 4 4 3 2 2 2 2 1 1 0 0 1 1 1 0 1 1 1 0 1 1 0 0 0 0 0 1
3 2 4 5 3 1 3 4 4 4 4 5 6 7 7 7 5 4 4 4 4 3 3 3 3 2 2 2 1 1 0 0 0 0 1 0 0 1 1 1 0 1 1 1 1 0 1 0 0
3 2 4 4 2 1 2 4 4 4 6 7 8 8 8 6 5 5 5 5 5 5 4 3 3 3 2 2 1 1 1 0 1 1 1 0 0 1 1 1 1 1 1 1 1 1 1 0 1
4 5 5 4 3 2 0 4 3 2 2 3 5 6 7 9 9 8 7 6 5 5 5 4 3 2 2 2 2 2 1 1 1 1 1 1 1 0 1 1 1 1 1 1 1 2 2 1 0
5 6 5 3 1 2 0 3 6 3 2 4 5 5 6 7 7 7 8 7 6 6 4 4 3 3 2 3 3 3 2 1 2 1 1 1 1 1 1 1 1 1 1 1 2 2 2 2 1
6 2 3 2 2 0 1 2 7 1 4 6 6 7 7 6 7 8 8 7 6 5 4 3 3 3 2 3 3 3 2 1 1 0 0 1 1 1 0 1 1 1 1 1 1 1 2 2 2
4 5 5 4 4 1 3 3 7 4 5 4 5 6 6 6 6 6 5 4 4 4 4 4 4 3 2 3 3 3 3 2 1 1 1 0 1 1 1 0 1 1 1 2 2 2 2 2 2
4 5 3 4 3 5 2 3 8 5 4 5 5 5 6 6 6 6 6 6 6 5 5 4 4 3 3 3 3 3 3 3 3 3 2 1 1 1 1 1 1 1 2 2 2 2 2 3 3
4 8 7 5 4 4 2 5 7 4 2 1 2 3 4 5 6 7 7 7 6 6 5 5 4 3 3 3 3 2 3 2 2 2 2 2 2 2 1 1 1 1 2 2 1 2 2 2 2
5 4 5 6 2 1 4 5 6 2 2 2 2 2 2 4 6 6 6 6 6 7 6 6 5 4 4 3 2 2 2 3 2 2 1 1 1 1 1 1 1 1 1 1 1 1 2 2 2
4 7 5 5 4 3 4 4 4 3 2 1 1 2 2 2 4 4 4 5 5 5 5 4 5 5 4 3 3 3 3 3 2 2 1 1 1 1 1 1 0 1 1 0 1 1 1 1 1
3 3 4 4 4 4 3 7 4 6 5 5 4 3 3 3 4 4 3 3 3 4 4 4 4 3 3 3 3 2 2 2 2 2 2 1 1 1 1 1 1 1 0 0 0 1 1 1 1
4 4 6 4 3 4 3 7 2 2 3 3 3 2 2 3 3 3 3 3 3 4 3 3 3 3 3 3 3 2 2 2 2 2 2 2 2 1 1 1 1 1 0 0 0 0 0 0 1
Wind_Direction
158 120 108 79 56 47 311 274 259 311 2 34 77 97 115 121 156 181 153 135 130 139 148 148 143 137 132 127 124 122 120 119 120 122 124 125 130 136 138 137 140 142 147 146 142 139 142 144 144
136 133 77 63 77 40 295 267 266 250 170 123 77 77 79 70 71 109 122 139 133 139 142 147 145 140 135 131 129 128 126 125 125 125 125 126 130 136 141 144 149 152 154 150 149 149 149 150 152
153 123 86 72 96 183 258 262 226 96 113 95 80 69 87 93 115 149 156 139 127 129 133 149 146 143 139 135 133 132 131 130 129 128 127 128 130 133 141 150 156 161 162 158 156 155 151 152 157
116 53 56 67 273 235 228 250 203 162 25 60 103 84 75 74 146 140 133 134 128 125 129 144 146 144 138 133 132 134 134 134 132 130 132 134 134 136 141 150 158 162 163 163 164 161 159 163 167
65 75 55 21 287 269 249 240 180 176 161 98 112 107 56 19 98 120 132 135 134 127 127 140 145 143 139 134 133 136 137 136 135 136 138 139 138 141 148 154 158 159 160 161 166 172 176 182 186
59 67 75 321 293 292 279 240 133 151 126 121 117 115 91 93 110 127 129 126 130 132 125 129 143 143 141 139 138 137 139 139 140 142 143 143 142 145 154 160 162 161 163 168 171 174 181 192 195
104 100 146 230 286 300 280 209 129 139 130 158 139 116 119 122 125 123 115 109 111 120 120 120 128 137 140 144 146 145 143 144 145 144 144 147 148 154 159 161 169 173 172 171 169 164 174 186 205
127 105 122 249 248 269 277 51 109 137 159 122 121 142 177 165 124 111 101 99 103 110 119 124 116 117 126 139 147 150 147 141 139 138 138 135 133 135 147 153 177 186 189 185 173 171 187 198 216
99 81 212 224 212 249 258 51 315 98 108 100 102 140 146 131 124 115 106 101 117 132 123 126 130 125 126 141 153 147 142 131 133 135 129 118 90 79 93 122 146 171 174 175 172 174 187 195 224
104 149 227 222 205 220 249 219 188 94 97 122 87 87 114 127 135 139 145 152 161 168 168 151 150 141 133 143 116 106 113 110 112 107 109 109 105 102 104 48 53 46 111 100 104 143 147 121 136
162 199 239 250 223 205 206 219 164 139 192 204 171 145 137 140 147 158 165 169 178 178 175 167 165 155 145 134 117 103 94 93 99 107 111 108 99 86 76 53 7 9 29 37 26 39 78 123 169
196 239 235 258 216 183 189 174 149 176 210 175 151 147 147 154 163 170 176 180 174 166 174 165 161 149 141 130 126 122 123 124 135 146 124 117 113 96 81 78 11 39 17 28 68 112 101 103 191
220 264 264 257 258 198 156 164 163 206 178 128 134 144 155 164 169 170 168 161 161 166 166 163 155 151 144 131 145 135 150 167 178 159 143 144 143 151 139 26 346 342 161 150 118 123 149 159 195
240 256 286 289 263 176 138 141 123 229 141 132 142 154 163 169 169 159 159 164 167 170 171 159 152 151 143 144 152 148 159 167 155 172 189 171 166 165 158 183 259 270 232 192 171 172 171 191 205
287 306 326 319 200 162 114 28 225 188 136 137 148 154 161 167 167 172 175 171 173 172 164 160 160 141 142 152 162 159 161 148 168 200 211 187 169 165 160 169 213 272 263 165 127 122 126 161 202
4 31 328 303 355 125 121 239 250 152 144 151 160 160 159 168 177 179 173 167 171 167 163 168 156 141 140 134 142 154 152 156 181 190 213 201 165 147 147 156 212 262 80 96 129 135 123 170 223
30 39 269 301 327 103 130 239 255 167 155 168 173 166 165 168 181 188 176 169 171 170 162 159 148 149 149 136 122 114 149 156 170 153 212 242 128 135 141 163 214 159 94 78 155 98 154 209 283
227 229 268 277 287 94 211 248 263 202 174 182 179 174 176 183 196 187 174 168 165 160 153 148 142 145 134 114 96 76 61 88 142 183 222 188 165 153 130 147 169 145 124 90 89 95 98 185 241
184 201 254 267 252 169 235 254 262 219 190 191 191 187 187 191 185 169 168 161 152 152 151 153 147 155 139 128 134 137 198 286 309 274 240 209 182 159 153 148 135 146 159 201 203 108 93 42 52
194 229 263 292 315 157 256 275 258 216 208 203 197 195 191 181 169 173 166 163 168 170 167 168 165 169 170 162 156 161 167 191 231 264 301 277 192 196 178 167 179 181 163 161 173 129 126 304 84
224 205 224 243 333 18 44 307 266 250 224 217 207 194 183 183 183 183 177 179 175 179 180 174 175 177 167 141 109 90 68 44 20 346 322 313 290 242 185 186 176 186 181 200 208 184 166 192 235
241 223 202 201 111 293 24 285 281 247 237 220 215 195 186 187 183 181 182 182 185 191 182 167 160 168 164 147 148 155 165 187 219 226 250 307 307 261 207 196 177 187 196 207 220 192 185 173 206
214 175 152 153 147 335 326 224 281 259 245 239 219 201 192 190 186 186 188 187 184 177 173 161 150 153 152 150 158 162 171 196 212 230 239 301 316 299 250 204 189 194 204 218 212 200 195 189 195
154 79 58 55 74 293 239 196 275 246 231 234 214 198 191 185 185 188 184 169 160 156 165 157 150 161 161 156 164 172 177 182 174 214 217 267 313 305 300 252 213 219 217 223 221 213 206 206 202
113 99 36 0 10 253 250 207 250 256 240 216 215 203 187 181 181 180 175 173 170 170 174 167 165 180 181 173 183 191 189 184 188 202 205 202 228 253 264 259 242 236 234 230 216 209 220 211 204
176 148 161 196 219 269 294 237 254 271 278 193 194 193 179 182 184 183 184 179 177 178 177 178 181 192 193 191 204 203 187 179 192 202 194 195 212 235 241 229 235 240 238 235 208 210 222 212 215
146 177 166 136 149 251 273 279 301 351 38 78 109 143 178 194 189 186 180 180 178 181 185 184 188 196 203 205 205 196 189 183 188 197 193 199 223 226 201 191 232 261 250 232 212 219 227 216 224
141 144 107 123 157 241 284 272 254 258 252 219 183 198 186 171 169 170 178 182 181 183 178 173 184 197 205 203 201 196 194 190 181 168 190 208 224 207 180 200 230 283 300 249 207 227 223 210 232
113 106 111 123 153 163 252 268 233 214 212 201 206 196 180 175 175 172 175 168 163 162 164 175 190 198 206 208 203 193 194 186 172 178 206 204 202 189 197 206 211 230 259 279 223 248 215 199 245
144 157 147 155 206 179 196 264 298 211 204 182 180 167 176 169 162 148 142 142 152 161 170 182 196 201 208 204 193 192 191 176 175 196 205 186 183 194 197 190 190 227 230 229 206 262 10 99 292